Hourly Data Report for September 01, 2017

All times are specified in Local Standard Time (LST). Add 1 hour to adjust for Daylight Saving Time where and when it is observed.

GRISE FIORD CLIMATE
NUNAVUT

76°25'22.040" N
82°54'08.020" W
44.50 m
2402351
71971
NGC

Download Data

Hourly Data (September 2017)
Hourly Data Report for September 1, 2017
Temp Definition
°C
Dew Point Temp Definition
°C
Rel Hum Definition
%
Wind Dir Definition
10's deg

Wind Spd Definition
km/h
Visibility Definition
km
Stn Press Definition
kPa
Hmdx Definition


Wind Chill Definition


Weather Definition


TIME
00:00 -1.5 -5.8 73 33 16   99.55   -6 LegendNANA
01:00 -2.4 -6.5 73 32 13   99.58   -7 LegendNANA
02:00 -3.2 -6.9 76 1 2   99.59   -4 LegendNANA
03:00 -3.1 -6.1 80 12 2   99.59   -4 LegendNANA
04:00 -2.1 -6.1 74 4 10   99.60   -6 LegendNANA
05:00 -1.4 -4.6 79 11 2   99.60   -2 LegendNANA
06:00 -1.1 -4.8 76 7 4   99.61   -2 LegendNANA
07:00 -1.6 -3.0 90 15 4   99.64   -3 LegendNANA
08:00 -1.4 -3.0 89 11 4   99.67   -3 LegendNANA
09:00 -1.0 -3.5 83 12 2   99.68   -2 LegendNANA
10:00 -0.7 -4.0 78 0 1   99.71   -1 LegendNANA
11:00 0.7 -5.7 62 0 1   99.73     LegendNANA
12:00 0.9 -5.1 64 29 4   99.77     LegendNANA
13:00 1.0 -3.5 72 28 11   99.78     LegendNANA
14:00 0.5 -3.1 77 16 9   99.85     LegendNANA
15:00 0.5 -2.4 81 20 7   99.92     LegendNANA
16:00 1.2 -3.6 71 27 3   99.99     LegendNANA
17:00 0.5 -3.0 78 17 4   100.03     LegendNANA
18:00 0.8 -2.7 78 4 1   100.07     LegendNANA
19:00 0.4 -2.4 82 18 2   100.11     LegendNANA
20:00 0.0 -1.3 91 12 2   100.16   -1 LegendNANA
21:00 0.3 -0.9 91 10 1   100.18     LegendNANA
22:00 -0.1 -0.9 95 1 2   100.23   -1 LegendNANA
23:00 -0.5 -1.1 95 24 1   100.24   -1 LegendNANA

Notes on Data Quality.

Legend

  • E = Estimated
  • M = Missing
  • NA = Not Available
  • ‡ = Partner data that is not subject to review by the National Climate Archives
Date modified: